Location: Boussy-Saint-Antoine
(48.6830°N, 2.5330°E)
Time: 06:16:33
(UTC+02:00)

OTV 5 (USA 277) - Visible Passes

Search period start: 16 October 2019 00:00
Search period end: 26 October 2019 00:00
Orbit: 310 x 324 km, 54.5° (Epoch: 08 October)

Date Brightness Start Highest point End Pass type
(mag) Time Alt. Az. Time Alt. Az. Time Alt. Az.
16 Oct ? 06:07:19 29° NE 06:07:19 29° NE 06:09:25 10° E visible
17 Oct ? 06:21:37 49° NNE 06:21:37 49° NNE 06:24:16 10° E visible
18 Oct ? 06:36:01 74° W 06:36:12 82° SSW 06:38:56 10° ESE visible
19 Oct ? 06:50:31 34° SW 06:50:41 35° SW 06:53:14 10° SSE visible
20 Oct ? 07:05:08 16° SW 07:05:08 16° SW 07:06:50 10° S visible
